[[{"header":{"parameterUnit":"m.s-1","parameterCategory":1,"la1":30.2991,"la2":30.254,"lo1":-89.0895,"lo2":-89.0444,"dy":0.0017,"dx":0.0017,"nx":28,"ny":28,"refTime":"2024-04-06T03:00:00:Z","depth":0,"parameterNumber":2,"parameterNumberName":"U-component_of_WINDS"},"data":[0,0,0,0,0,0,0,0,0,0,0,0,0,0,0,0,0,0,0,0,0,0,0,0,0,0,0,0,0,0,0,0,0,0,0,0,0,0,0,0,0,0,0,0,0,0,0,0,0,0,0,0,0,0,0,0,0,0,-3.6305,-3.6306,0,-3.6345,-3.6346,-3.6346,-3.633,-3.6329,-3.6328,-3.6327,-3.6366,-3.6368,-3.637,0,0,0,0,0,0,0,0,0,0,0,0,0,-3.6213,-3.6215,-3.6305,-3.6306,-3.6306,-3.6345,-3.6346,-3.6346,-3.633,-3.6329,-3.6328,-3.6327,-3.6365,-3.6367,-3.637,0,0,0,0,0,0,0,0,0,0,0,0,0,-3.6253,-3.6215,-3.6305,-3.6303,-3.6303,-3.6345,-3.6346,-3.6346,-3.6331,-3.6329,-3.6328,-3.6326,-3.6365,-3.6367,-3.637,-3.6416,0,0,-3.6379,-3.638,0,0,0,0,0,0,0,0,-3.6251,-3.6256,-3.6303,-3.6303,-3.6303,-3.6331,-3.6327,-3.6369,-3.6331,-3.632,-3.6327,-3.6326,-3.6355,-3.6359,-3.6369,-3.6417,-3.6419,-3.6379,-3.6381,-3.6382,-3.6383,0,0,0,0,0,0,0,-3.6248,-3.6254,-3.6321,-3.6303,-3.6304,-3.6299,-3.6304,-3.6335,-3.6345,-3.6321,-3.632,-3.6325,-3.6355,-3.6367,-3.637,-3.642,-3.6379,-3.6381,-3.6383,-3.6384,-3.6506,-3.6508,0,0,0,0,0,0,-3.6245,-3.6252,-3.632,-3.6322,-3.6273,-3.6302,-3.6307,-3.6324,-3.6345,-3.6346,-3.6326,-3.6324,-3.6362,-3.6367,-3.6371,-3.6425,-3.6382,-3.6385,-3.6386,-3.6505,-3.6507,-3.6508,0,0,0,0,0,0,-3.6243,-3.6252,-3.6318,-3.6287,-3.6295,-3.6305,-3.6324,-3.6325,-3.6337,-3.6349,-3.635,-3.6336,-3.6362,-3.6367,-3.6405,-3.6426,-3.6386,-3.6388,-3.6503,-3.6505,-3.6508,-3.6533,0,0,0,0,0,0,-3.6241,-3.6251,-3.6269,-3.6288,-3.6297,-3.6351,-3.6326,-3.6327,-3.6342,-3.634,-3.6358,-3.636,-3.6361,-3.6401,-3.6408,-3.6429,-3.6391,-3.6501,-3.6504,-3.6507,-3.653,-3.6536,-3.654,0,0,0,0,0,-3.6238,-3.6274,-3.627,-3.6278,-3.6319,-3.6352,-3.6358,-3.6359,-3.6344,-3.6361,-3.6369,-3.6359,-3.6423,-3.6405,-3.6412,-3.6435,-3.65,-3.6503,-3.6507,-3.6528,-3.6535,-3.654,0,0,0,0,0,0,-3.6256,-3.6276,-3.6272,-3.6315,-3.6332,-3.635,-3.6371,-3.6366,-3.6387,-3.6384,-3.6384,-3.6388,-3.6426,-3.6435,-3.6414,-3.648,-3.6459,-3.6464,-3.6472,-3.6479,-3.6484,-3.648,-3.6393,0,0,0,0,0,-3.6265,-3.6291,-3.6307,-3.6344,-3.6353,-3.6361,-3.6375,-3.6375,-3.6392,-3.6399,-3.641,-3.6426,-3.645,-3.6466,-3.6488,-3.6532,-3.6535,-3.6552,-3.6557,-3.6561,-3.6565,-3.6588,-3.6595,-3.652,-3.652,-3.652,0,0,-3.6284,-3.6298,-3.6314,-3.6348,-3.6361,-3.6387,-3.6367,-3.6395,-3.6414,-3.6403,-3.6439,-3.6448,-3.6466,-3.6507,-3.6525,-3.6515,-3.6587,-3.6566,-3.6569,-3.657,-3.6592,-3.6599,-3.6606,-3.6522,-3.6522,-3.6521,0,0,-3.6331,-3.6345,-3.6377,-3.6391,-3.6412,-3.6417,-3.6425,-3.6444,-3.6449,-3.6485,-3.6477,-3.65,-3.6541,-3.6555,-3.6567,-3.6621,-3.6612,-3.6629,-3.6655,-3.6677,-3.6683,-3.6688,-3.6706,-3.6712,-3.6633,-3.6633,-3.6633,0,-3.6351,-3.639,-3.6393,-3.6422,-3.6437,-3.643,-3.6461,-3.6475,-3.6502,-3.6512,-3.6501,-3.6552,-3.6564,-3.6608,-3.6621,-3.6632,-3.664,-3.6625,-3.6682,-3.6687,-3.6692,-3.6709,-3.6716,-3.6634,-3.6634,-3.6634,-3.6634,0,-3.6413,-3.6441,-3.6464,-3.6491,-3.6508,-3.6539,-3.6546,-3.6563,-3.6562,-3.6568,-3.6605,-3.662,-3.6645,-3.6656,-3.6655,-3.6699,-3.6692,-3.6682,-3.666,-3.6701,-3.6716,-3.6723,-3.6637,-3.6636,-3.6636,-3.6635,0,0,-3.6469,-3.6499,-3.6507,-3.6519,-3.6543,-3.6564,-3.6594,-3.662,-3.6634,-3.6654,-3.6678,-3.6714,-3.6704,-3.6718,-3.6719,-3.6739,-3.6779,-3.6726,-3.6726,-3.6733,-3.6827,-3.6833,-3.684,-3.6775,-3.6776,-3.6777,-3.6825,0,-3.6517,-3.657,-3.6574,-3.6621,-3.6646,-3.6641,-3.6667,-3.6684,-3.6692,-3.6713,-3.6722,-3.6746,-3.6733,-3.6742,-3.6762,-3.677,-3.6797,-3.6767,-3.6796,-3.6797,-3.6788,-3.6849,-3.6855,-3.6899,-3.6831,-3.6832,-3.6833,0,-3.6578,-3.66,-3.665,-3.667,-3.668,-3.6704,-3.6728,-3.6749,-3.6768,-3.6772,-3.6789,-3.6787,-3.6818,-3.6798,-3.6839,-3.6818,-3.683,-3.6837,-3.6838,-3.6839,-3.6815,-3.6848,-3.6913,-3.6918,-3.6843,-3.6842,-3.6841,0,-3.6611,-3.6654,-3.6689,-3.67,-3.6725,-3.6741,-3.6752,-3.677,-3.6785,-3.6806,-3.6816,-3.684,-3.6853,-3.6872,-3.6876,-3.6862,-3.6917,-3.6898,-3.692,-3.6919,-3.6929,-3.6928,-3.6994,-3.6942,-3.6942,-3.6941,-3.6941,0,-3.6661,-3.6692,-3.6704,-3.6725,-3.6759,-3.6765,-3.6798,-3.6808,-3.6824,-3.6847,-3.6845,-3.6866,-3.6872,-3.6894,-3.6899,-3.6931,-3.6937,-3.694,-3.6941,-3.6939,-3.6938,-3.6945,-3.6941,-3.6943,-3.6943,-3.6942,-3.6942,0,-3.6703,-3.6713,-3.6751,-3.6772,-3.6778,-3.6802,-3.6819,-3.684,-3.6848,-3.6877,-3.6884,-3.6896,-3.6922,-3.693,-3.6961,-3.6964,-3.7001,-3.7,-3.6995,-3.6994,-3.7015,-3.7012,-3.7085,-3.7095,-3.7039,-3.7039,-3.704,0,-3.6733,-3.6756,-3.678,-3.6796,-3.6808,-3.6833,-3.6849,-3.6855,-3.6872,-3.6896,-3.6913,-3.694,-3.696,-3.7003,-3.7014,-3.7038,-3.7036,-3.706,-3.7039,-3.7037,-3.7033,-3.7031,-3.7032,-3.7063,-3.7063,-3.7064,-3.7064,0,-3.6785,-3.6789,-3.6812,-3.6837,-3.6857,-3.6877,-3.6896,-3.6909,-3.6918,-3.6937,-3.6964,-3.6981,-3.7013,-3.7039,-3.7063,-3.7074,-3.707,-3.7071,-3.7077,-3.7074,-3.7069,-3.707,-3.7003,-3.7069,-3.7068,-3.7068,-3.7068,-3.7068,-3.682,-3.684,-3.686,-3.6886,-3.6902,-3.692,-3.694,-3.6952,-3.6975,-3.7002,-3.7005,-3.7034,-3.7053,-3.7086,-3.7098,-3.7121,-3.7113,-3.7122,-3.7124,-3.7126,-3.7126,-3.7069,-3.7125,-3.7125,-3.7125,-3.7125,-3.7125,0,-3.687,-3.6883,-3.6907,-3.6934,-3.6955,-3.6952,-3.6973,-3.699,-3.7016,-3.7035,-3.7056,-3.7087,-3.7112,-3.7126,-3.7151,-3.7167,-3.7165,-3.7173,-3.717,-3.7172,-3.7133,-3.7124,-3.7173,-3.7173,-3.7173,-3.7173,-3.7173,-3.7173,-3.6898,-3.6931,-3.6938,-3.6979,-3.6992,-3.7021,-3.7033,-3.705,-3.7065,-3.71,-3.7121,-3.7131,-3.7148,-3.7174,-3.7197,-3.72,-3.7209,-3.7216,-3.7219,-3.718,-3.7175,-3.717,-3.7162,-3.7219,-3.7219,-3.7256,-3.7257,-3.7257]},{"header":{"parameterUnit":"m.s-1","parameterCategory":1,"la1":30.2991,"la2":30.254,"lo1":-89.0895,"lo2":-89.0444,"dy":0.0017,"dx":0.0017,"nx":28,"ny":28,"refTime":"2024-04-06T03:00:00:Z","depth":0,"parameterNumber":3,"parameterNumberName":"V-component_of_WINDS"},"data":[0,0,0,0,0,0,0,0,0,0,0,0,0,0,0,0,0,0,0,0,0,0,0,0,0,0,0,0,0,0,0,0,0,0,0,0,0,0,0,0,0,0,0,0,0,0,0,0,0,0,0,0,0,0,0,0,0,0,4.5182,4.5182,0,4.5186,4.5187,4.5187,4.5215,4.5215,4.5216,4.5217,4.5215,4.5214,4.5214,0,0,0,0,0,0,0,0,0,0,0,0,0,4.5195,4.5194,4.5182,4.5182,4.5182,4.5186,4.5187,4.5187,4.5215,4.5215,4.5216,4.5217,4.5215,4.5214,4.5214,0,0,0,0,0,0,0,0,0,0,0,0,0,4.5193,4.5194,4.5182,4.5197,4.5198,4.5186,4.5187,4.5187,4.5214,4.5215,4.5217,4.5217,4.5216,4.5214,4.5213,4.5186,0,0,4.521,4.521,0,0,0,0,0,0,0,0,4.5193,4.5192,4.5195,4.5196,4.5198,4.5201,4.519,4.5186,4.5214,4.5208,4.5217,4.5218,4.5209,4.5209,4.5207,4.5186,4.5186,4.521,4.521,4.5209,4.5209,0,0,0,0,0,0,0,4.5193,4.5192,4.5184,4.5195,4.5196,4.5202,4.5203,4.519,4.5202,4.5209,4.5211,4.5211,4.521,4.5208,4.5207,4.5186,4.521,4.5209,4.5209,4.5208,4.5145,4.5144,0,0,0,0,0,0,4.5192,4.5192,4.5184,4.5184,4.5198,4.5201,4.5202,4.5199,4.5203,4.5204,4.521,4.5213,4.5209,4.5208,4.5207,4.5177,4.5209,4.5208,4.5207,4.5146,4.5145,4.5143,0,0,0,0,0,0,4.5192,4.5191,4.5183,4.5189,4.5188,4.52,4.5196,4.5198,4.5196,4.5204,4.5206,4.5206,4.521,4.5209,4.5192,4.5177,4.5208,4.5207,4.5147,4.5146,4.5144,4.5115,0,0,0,0,0,0,4.5192,4.5191,4.5181,4.5188,4.5188,4.5169,4.5195,4.5198,4.5195,4.5198,4.5201,4.5202,4.5211,4.5193,4.5191,4.5176,4.5206,4.5148,4.5146,4.5145,4.5118,4.5113,4.5109,0,0,0,0,0,4.5193,4.5171,4.518,4.5179,4.5176,4.5168,4.5168,4.518,4.5194,4.5184,4.5189,4.5202,4.518,4.5192,4.5189,4.5174,4.5149,4.5147,4.5145,4.512,4.5114,4.5109,0,0,0,0,0,0,4.5158,4.5172,4.5183,4.5163,4.5165,4.5173,4.5161,4.5173,4.5169,4.5172,4.5186,4.5186,4.5168,4.5169,4.5182,4.5149,4.5167,4.5164,4.5149,4.5143,4.5139,4.5139,4.5205,0,0,0,0,0,4.5149,4.5143,4.5154,4.5136,4.5136,4.5148,4.5145,4.5155,4.5157,4.5157,4.5161,4.516,4.5154,4.5148,4.5142,4.5118,4.512,4.5107,4.5102,4.5099,4.5096,4.5086,4.5081,4.5136,4.5136,4.5136,0,0,4.5128,4.5135,4.513,4.5129,4.5131,4.5124,4.5149,4.5139,4.5133,4.5154,4.514,4.5143,4.5144,4.5124,4.5115,4.5125,4.5082,4.5096,4.5093,4.5092,4.5083,4.5077,4.5073,4.5134,4.5134,4.5135,0,0,4.5087,4.5092,4.5078,4.5081,4.5086,4.5095,4.5091,4.5099,4.5103,4.5089,4.5106,4.5098,4.5086,4.5087,4.5085,4.5048,4.506,4.5046,4.5023,4.5013,4.5008,4.5004,4.4993,4.4988,4.5043,4.5043,4.5043,0,4.5061,4.5052,4.5068,4.5059,4.5059,4.5081,4.5067,4.5068,4.507,4.5069,4.5079,4.5067,4.5068,4.505,4.5042,4.5039,4.5036,4.5045,4.5008,4.5004,4.5001,4.499,4.4985,4.5041,4.5041,4.5041,4.5042,0,4.502,4.5013,4.5002,4.5006,4.5004,4.4992,4.5007,4.5003,4.5014,4.5021,4.5008,4.5011,4.5007,4.5004,4.5012,4.4988,4.4993,4.5006,4.5024,4.4994,4.4984,4.4979,4.5039,4.5039,4.504,4.504,0,0,4.4955,4.4972,4.4967,4.4971,4.4979,4.4974,4.4964,4.4963,4.496,4.496,4.4952,4.4943,4.4956,4.4954,4.4964,4.4954,4.4927,4.4968,4.4969,4.4962,4.4902,4.4893,4.4888,4.4936,4.4935,4.4934,4.4902,0,4.4917,4.4903,4.4919,4.49,4.4896,4.4918,4.4909,4.4913,4.492,4.4916,4.4924,4.4918,4.4934,4.4934,4.4926,4.4932,4.4916,4.4935,4.4928,4.4927,4.4928,4.4882,4.4872,4.4842,4.4898,4.4898,4.4897,0,4.4871,4.4873,4.4855,4.4868,4.4866,4.4858,4.486,4.4856,4.4861,4.4868,4.4868,4.4881,4.4871,4.489,4.4877,4.489,4.4888,4.4891,4.489,4.489,4.4911,4.4882,4.4832,4.4828,4.4891,4.4891,4.4892,0,4.4828,4.4826,4.4816,4.4818,4.4832,4.4826,4.4831,4.4838,4.4837,4.4838,4.4838,4.4837,4.4836,4.4835,4.4847,4.4859,4.4833,4.4852,4.4838,4.4838,4.4831,4.4831,4.4781,4.4829,4.4829,4.4829,4.4829,0,4.4784,4.4772,4.4797,4.4791,4.4779,4.4798,4.4785,4.4792,4.4798,4.4793,4.4811,4.4806,4.4822,4.4819,4.4828,4.4817,4.4816,4.4821,4.4823,4.4819,4.4819,4.4818,4.4821,4.4828,4.4828,4.4828,4.4829,0,4.4733,4.475,4.474,4.4756,4.4759,4.475,4.4762,4.4757,4.4767,4.476,4.476,4.4774,4.4771,4.4784,4.4782,4.4788,4.4773,4.4778,4.4772,4.4774,4.4759,4.4761,4.4707,4.4702,4.4752,4.4752,4.4751,0,4.4705,4.4697,4.4713,4.4712,4.4718,4.4715,4.4716,4.4734,4.4734,4.4741,4.4735,4.4734,4.4734,4.4728,4.4738,4.4737,4.4744,4.4725,4.4743,4.4741,4.4745,4.4745,4.4745,4.4721,4.472,4.472,4.472,0,4.4653,4.4662,4.4664,4.4668,4.4669,4.4673,4.4678,4.4676,4.4696,4.4694,4.4693,4.4694,4.4694,4.4693,4.4695,4.4699,4.4713,4.4714,4.4711,4.4707,4.4704,4.4707,4.4762,4.4715,4.4715,4.4716,4.4716,4.4716,4.4613,4.4609,4.462,4.4621,4.4628,4.4633,4.4629,4.464,4.464,4.4644,4.4654,4.4651,4.4658,4.4663,4.4666,4.4664,4.4672,4.4667,4.4666,4.4665,4.4663,4.4705,4.4664,4.4664,4.4664,4.4664,4.4664,0,4.4564,4.4573,4.4574,4.4583,4.4584,4.4599,4.4606,4.4606,4.4604,4.4611,4.4612,4.4611,4.4611,4.4622,4.4624,4.462,4.4626,4.4619,4.462,4.4621,4.4655,4.4658,4.4615,4.4615,4.4615,4.4615,4.4615,4.4615,4.4538,4.4532,4.4543,4.454,4.4549,4.4548,4.4551,4.4556,4.4562,4.4561,4.4563,4.4571,4.4579,4.4582,4.4583,4.4586,4.4586,4.4577,4.4583,4.4614,4.4618,4.4623,4.4626,4.4577,4.4577,4.455,4.4549,4.4549]}]]